QPF
0.00 0.00 0.00 0.00 0.00 0.00 0.00 0.00 0.00 0.00 0.00 0.00 0.00 0.00 0.00 0.00 0.00 0.00 0.00 0.00 0.00 0.00 0.00 0.00 0.00 0.00 0.00 0.01 0.00 0.00 0.00 0.00 0.00 0.00 0.00 0.00 0.00 0.00 0.00 0.01 0.00 0.00 0.00 0.00
0.00 0.00 0.00 0.00 0.00 0.00 0.00 0.00 0.00 0.00 0.00 0.00 0.00 0.00 0.00 0.00 0.00 0.00 0.00 0.00 0.00 0.00 0.00 0.00 0.00 0.00 0.00 0.00 0.00 0.00 0.00 0.00 0.00 0.00 0.00 0.00 0.00 0.00 0.00 0.00 0.00 0.00 0.00 0.00
0.00 0.00 0.00 0.00 0.00 0.00 0.00 0.00 0.00 0.00 0.00 0.00 0.00 0.00 0.00 0.00 0.00 0.00 0.00 0.00 0.00 0.00 0.00 0.00 0.00 0.00 0.00 0.00 0.00 0.00 0.00 0.00 0.00 0.00 0.00 0.00 0.00 0.00 0.00 0.00 0.00 0.00 0.00 0.00
0.00 0.00 0.00 0.00 0.00 0.00 0.00 0.00 0.00 0.00 0.00 0.00 0.00 0.00 0.00 0.00 0.00 0.00 0.00 0.00 0.00 0.00 0.00 0.00 0.00 0.00 0.00 0.00 0.00 0.00 0.00 0.00 0.00 0.00 0.00 0.00 0.00 0.00 0.00 0.00 0.00 0.00 0.00 0.03
0.00 0.00 0.00 0.00 0.00 0.00 0.00 0.00 0.00 0.00 0.00 0.00 0.00 0.00 0.00 0.00 0.00 0.00 0.00 0.00 0.00 0.00 0.00 0.00 0.00 0.00 0.00 0.02 0.01 0.00 0.00 0.00 0.00 0.00 0.00 0.00 0.00 0.00 0.00 0.00 0.00 0.03 0.00 0.00
0.00 0.00 0.00 0.00 0.00 0.00 0.00 0.00 0.00 0.00 0.00 0.00 0.00 0.00 0.00 0.00 0.00 0.00 0.00 0.00 0.00 0.00 0.00 0.00 0.00 0.00 0.00 0.00 0.02 0.02 0.00 0.00 0.00 0.00 0.00 0.00 0.00 0.00 0.00 0.01 0.02 0.00 0.00 0.00
0.00 0.00 0.00 0.00 0.00 0.00 0.00 0.00 0.00 0.00 0.00 0.00 0.00 0.00 0.00 0.00 0.00 0.00 0.00 0.00 0.00 0.00 0.00 0.00 0.00 0.00 0.00 0.00 0.01 0.01 0.00 0.00 0.00 0.00 0.00 0.00 0.00 0.00 0.00 0.04 0.02 0.00 0.00 0.00
0.00 0.00 0.00 0.00 0.00 0.00 0.00 0.00 0.00 0.00 0.00 0.00 0.00 0.00 0.00 0.00 0.00 0.00 0.00 0.00 0.00 0.00 0.00 0.00 0.00 0.00 0.00 0.00 0.03 0.05 0.01 0.00 0.00 0.00 0.00 0.00 0.00 0.02 0.04 0.02 0.03 0.00 0.00 0.01
0.00 0.00 0.00 0.00 0.00 0.00 0.00 0.00 0.00 0.00 0.00 0.00 0.00 0.00 0.00 0.00 0.00 0.00 0.00 0.00 0.00 0.00 0.00 0.00 0.00 0.00 0.00 0.00 0.01 0.04 0.01 0.00 0.00 0.00 0.00 0.00 0.01 0.02 0.02 0.03 0.11 0.01 0.00 0.00
0.00 0.00 0.00 0.00 0.00 0.00 0.00 0.00 0.00 0.00 0.00 0.00 0.00 0.00 0.00 0.00 0.00 0.00 0.00 0.00 0.00 0.00 0.00 0.00 0.00 0.00 0.00 0.00 0.00 0.01 0.04 0.03 0.00 0.00 0.00 0.00 0.02 0.01 0.00 0.01 0.03 0.01 0.01 0.00
0.00 0.00 0.00 0.00 0.00 0.00 0.00 0.00 0.00 0.00 0.00 0.00 0.00 0.00 0.00 0.00 0.00 0.00 0.00 0.00 0.00 0.00 0.00 0.00 0.00 0.00 0.00 0.00 0.00 0.01 0.07 0.04 0.00 0.00 0.00 0.00 0.00 0.00 0.00 0.00 0.02 0.02 0.01 0.00
0.00 0.00 0.00 0.00 0.00 0.00 0.00 0.00 0.00 0.00 0.00 0.00 0.00 0.00 0.00 0.00 0.00 0.00 0.00 0.00 0.00 0.00 0.00 0.00 0.00 0.00 0.00 0.00 0.00 0.04 0.09 0.04 0.00 0.00 0.00 0.00 0.00 0.00 0.00 0.00 0.00 0.00 0.00 0.01
0.00 0.00 0.00 0.00 0.00 0.00 0.00 0.00 0.00 0.00 0.00 0.00 0.00 0.00 0.00 0.00 0.00 0.00 0.00 0.00 0.00 0.00 0.00 0.00 0.00 0.00 0.00 0.00 0.00 0.00 0.03 0.18 0.14 0.05 0.04 0.06 0.05 0.02 0.01 0.00 0.00 0.00 0.00 0.00
0.00 0.00 0.00 0.00 0.00 0.00 0.00 0.00 0.00 0.00 0.00 0.00 0.00 0.00 0.00 0.00 0.00 0.00 0.00 0.00 0.00 0.00 0.00 0.00 0.00 0.00 0.00 0.00 0.00 0.01 0.04 0.03 0.02 0.03 0.05 0.05 0.05 0.03 0.02 0.02 0.02 0.01 0.00 0.00
0.00 0.00 0.00 0.00 0.00 0.00 0.00 0.00 0.00 0.00 0.00 0.00 0.00 0.00 0.00 0.00 0.00 0.00 0.00 0.00 0.00 0.00 0.00 0.00 0.00 0.00 0.00 0.00 0.00 0.00 0.00 0.00 0.00 0.00 0.01 0.01 0.02 0.01 0.02 0.04 0.04 0.01 0.00 0.00
0.00 0.00 0.00 0.00 0.00 0.00 0.00 0.00 0.00 0.00 0.00 0.00 0.00 0.00 0.00 0.00 0.00 0.00 0.00 0.00 0.00 0.00 0.00 0.00 0.00 0.00 0.00 0.00 0.00 0.00 0.00 0.00 0.00 0.00 0.00 0.00 0.00 0.00 0.00 0.01 0.02 0.01 0.00 0.00
0.00 0.00 0.00 0.00 0.00 0.00 0.00 0.00 0.00 0.00 0.00 0.00 0.00 0.00 0.00 0.00 0.00 0.00 0.00 0.00 0.00 0.00 0.00 0.00 0.00 0.00 0.00 0.00 0.00 0.00 0.00 0.00 0.00 0.00 0.00 0.00 0.00 0.00 0.00 0.00 0.00 0.02 0.01 0.00
0.00 0.00 0.00 0.00 0.00 0.00 0.00 0.00 0.00 0.00 0.00 0.00 0.00 0.00 0.00 0.00 0.00 0.00 0.00 0.00 0.00 0.00 0.00 0.00 0.00 0.00 0.00 0.00 0.00 0.00 0.00 0.00 0.00 0.00 0.00 0.00 0.00 0.00 0.00 0.00 0.00 0.00 0.00 0.00
0.00 0.00 0.00 0.00 0.00 0.00 0.00 0.00 0.00 0.00 0.00 0.00 0.00 0.00 0.00 0.00 0.00 0.00 0.00 0.00 0.00 0.00 0.00 0.00 0.00 0.00 0.00 0.00 0.00 0.00 0.00 0.00 0.00 0.00 0.00 0.00 0.00 0.00 0.00 0.00 0.00 0.00 0.00 0.00
0.00 0.00 0.00 0.00 0.00 0.00 0.00 0.00 0.00 0.00 0.00 0.00 0.00 0.00 0.00 0.00 0.00 0.00 0.00 0.00 0.00 0.00 0.00 0.00 0.00 0.00 0.00 0.00 0.00 0.00 0.00 0.00 0.00 0.00 0.00 0.00 0.00 0.00 0.00 0.00 0.00 0.00 0.00 0.01
0.00 0.00 0.00 0.00 0.00 0.00 0.00 0.00 0.00 0.00 0.00 0.00 0.00 0.00 0.00 0.00 0.00 0.00 0.00 0.00 0.00 0.00 0.00 0.00 0.00 0.00 0.00 0.00 0.00 0.00 0.00 0.00 0.00 0.00 0.00 0.00 0.00 0.00 0.00 0.00 0.00 0.00 0.00 0.00
0.00 0.00 0.00 0.00 0.00 0.00 0.00 0.00 0.00 0.00 0.00 0.00 0.00 0.00 0.00 0.00 0.00 0.00 0.00 0.00 0.00 0.00 0.00 0.00 0.00 0.00 0.00 0.00 0.00 0.00 0.00 0.00 0.00 0.00 0.00 0.00 0.00 0.00 0.00 0.01 0.00 0.00 0.00 0.00
0.00 0.00 0.00 0.00 0.00 0.00 0.00 0.00 0.00 0.00 0.00 0.00 0.00 0.00 0.00 0.00 0.00 0.00 0.00 0.00 0.00 0.00 0.00 0.00 0.00 0.00 0.00 0.00 0.00 0.00 0.00 0.00 0.00 0.00 0.00 0.00 0.00 0.00 0.04 0.02 0.06 0.04 0.00 0.00
0.00 0.00 0.00 0.00 0.00 0.00 0.00 0.00 0.00 0.00 0.00 0.00 0.00 0.00 0.00 0.00 0.00 0.00 0.00 0.00 0.00 0.00 0.00 0.00 0.00 0.00 0.00 0.00 0.00 0.00 0.00 0.00 0.00 0.00 0.00 0.00 0.00 0.00 0.00 0.02 0.04 0.06 0.04 0.01
0.00 0.00 0.00 0.00 0.00 0.00 0.00 0.00 0.00 0.00 0.00 0.00 0.00 0.00 0.00 0.00 0.00 0.00 0.00 0.00 0.00 0.00 0.00 0.00 0.00 0.00 0.00 0.00 0.00 0.00 0.00 0.00 0.00 0.00 0.00 0.00 0.00 0.00 0.00 0.00 0.00 0.01 0.02 0.07
0.00 0.00 0.00 0.00 0.00 0.00 0.00 0.00 0.00 0.00 0.00 0.00 0.00 0.00 0.00 0.00 0.00 0.00 0.00 0.00 0.00 0.00 0.00 0.00 0.00 0.00 0.00 0.00 0.00 0.00 0.00 0.00 0.00 0.00 0.00 0.00 0.00 0.01 0.00 0.00 0.00 0.00 0.00 0.03
MSLP
1009.74 1009.49 1009.23 1009.59 1009.90 1009.90 1009.81 1009.49 1009.10 1008.18 1008.24 1008.09 1008.67 1009.25 1009.38 1008.66 1009.06 1009.71 1010.38 1010.99 1010.52 1009.82 1010.29 1011.31 1012.07 1012.75 1013.54 1014.16 1014.68 1015.22 1015.80 1016.07 1016.68 1017.11 1017.38 1017.61 1017.64 1017.85 1018.09 1018.29 1018.48 1018.72 1018.87 1019.09
1009.85 1009.36 1009.54 1009.98 1010.03 1009.93 1009.73 1009.35 1008.68 1008.15 1008.12 1008.10 1008.85 1009.47 1009.89 1009.94 1010.16 1010.12 1010.13 1010.12 1010.20 1010.15 1010.43 1010.90 1011.35 1011.94 1012.58 1013.22 1013.86 1014.55 1015.12 1015.73 1016.23 1016.58 1016.95 1017.24 1017.48 1017.62 1017.68 1017.76 1018.10 1018.48 1018.69 1018.85
1009.33 1009.46 1009.85 1009.88 1009.71 1009.68 1009.23 1008.97 1008.51 1008.50 1008.05 1008.41 1008.43 1009.25 1009.57 1010.33 1010.83 1010.98 1010.84 1010.58 1010.07 1009.45 1009.49 1010.12 1010.71 1011.30 1012.01 1012.47 1013.13 1013.74 1014.36 1015.02 1015.77 1016.13 1016.72 1017.22 1017.45 1017.67 1017.66 1017.78 1017.87 1018.00 1018.41 1018.50
1009.41 1009.36 1009.47 1009.42 1009.28 1009.13 1008.37 1008.54 1008.54 1008.40 1008.34 1008.58 1009.14 1009.00 1010.27 1010.93 1010.82 1011.02 1011.03 1010.58 1009.99 1008.93 1009.05 1009.48 1010.05 1010.54 1011.20 1011.82 1012.72 1013.32 1013.95 1014.70 1015.33 1015.94 1016.38 1016.59 1016.67 1016.73 1016.94 1017.28 1017.52 1017.72 1018.10 1018.24
1009.10 1009.08 1009.06 1008.77 1008.35 1008.56 1008.14 1008.26 1008.44 1008.44 1008.65 1008.89 1009.24 1009.69 1011.56 1011.82 1011.41 1011.80 1011.74 1011.07 1010.41 1009.78 1008.94 1008.82 1009.24 1009.51 1010.38 1011.56 1012.31 1012.95 1013.66 1014.26 1014.89 1015.54 1015.86 1016.37 1016.60 1016.59 1016.88 1017.20 1017.42 1017.61 1017.73 1017.94
1008.96 1008.88 1008.67 1008.07 1008.07 1008.18 1008.21 1008.30 1008.51 1008.76 1008.75 1009.16 1010.35 1010.47 1011.97 1012.69 1013.45 1013.04 1012.73 1012.05 1011.31 1010.33 1009.44 1008.68 1008.76 1009.31 1010.14 1011.11 1011.81 1012.45 1013.17 1013.70 1014.43 1015.02 1015.53 1015.98 1016.26 1016.53 1016.77 1016.97 1017.03 1017.13 1017.31 1017.48
1008.45 1008.17 1007.99 1007.93 1007.84 1008.14 1008.09 1007.87 1007.66 1007.93 1008.34 1009.56 1010.84 1011.29 1013.48 1013.81 1014.05 1014.06 1013.57 1012.85 1012.02 1011.06 1009.87 1008.89 1008.84 1009.39 1009.79 1010.39 1011.16 1011.83 1012.53 1013.01 1013.65 1014.32 1014.85 1015.35 1015.82 1016.24 1016.43 1016.53 1016.67 1016.68 1016.78 1016.92
1008.09 1007.69 1007.60 1007.48 1007.27 1007.09 1007.69 1007.50 1007.64 1008.08 1008.87 1009.87 1011.12 1011.86 1013.52 1014.13 1014.33 1014.26 1014.07 1013.65 1012.90 1011.76 1010.86 1009.85 1009.35 1009.51 1009.75 1010.08 1010.87 1011.36 1011.80 1012.45 1013.17 1013.75 1014.03 1014.59 1015.17 1015.55 1015.91 1016.13 1016.11 1016.22 1016.23 1016.28
1007.98 1007.69 1007.57 1007.49 1007.41 1007.74 1007.98 1008.03 1008.44 1008.57 1009.94 1009.91 1011.34 1012.40 1013.52 1014.06 1014.33 1014.44 1014.05 1013.33 1012.68 1012.47 1012.02 1011.38 1010.61 1010.10 1010.13 1010.32 1010.96 1011.73 1012.43 1012.71 1013.00 1013.47 1014.12 1014.33 1014.62 1014.89 1015.16 1015.57 1015.72 1015.82 1015.94 1015.97
1008.07 1007.90 1007.78 1007.70 1007.83 1008.02 1007.91 1008.71 1008.65 1008.64 1009.12 1009.90 1011.38 1012.56 1013.34 1014.57 1014.92 1014.95 1014.63 1014.35 1014.15 1013.62 1013.18 1012.69 1012.25 1011.72 1010.88 1010.84 1011.35 1011.82 1012.27 1012.52 1013.03 1013.52 1014.03 1014.36 1014.61 1014.75 1014.85 1015.09 1015.34 1015.55 1015.61 1015.74
1008.22 1008.23 1008.29 1008.12 1008.73 1009.02 1008.86 1008.82 1009.35 1009.48 1009.84 1009.93 1011.03 1012.74 1014.65 1015.49 1015.94 1015.88 1015.76 1015.59 1015.21 1014.72 1014.32 1013.91 1013.49 1013.01 1012.62 1011.98 1011.95 1012.13 1012.52 1012.77 1012.78 1012.99 1013.41 1013.64 1013.90 1014.28 1014.82 1014.73 1014.62 1014.57 1015.02 1015.29
1008.65 1008.66 1008.74 1009.21 1009.90 1010.17 1009.91 1010.02 1009.96 1009.44 1010.35 1011.11 1011.75 1013.63 1015.30 1016.04 1016.41 1016.47 1016.28 1016.14 1015.89 1015.66 1015.29 1014.84 1014.48 1014.13 1013.91 1013.54 1013.35 1013.22 1013.02 1012.92 1012.75 1012.67 1012.89 1013.01 1013.51 1013.82 1013.95 1014.36 1014.44 1014.37 1014.07 1014.10
1008.86 1009.34 1009.60 1009.88 1010.21 1010.48 1010.54 1011.10 1011.11 1010.75 1010.94 1011.38 1012.03 1013.68 1015.45 1016.34 1016.67 1016.82 1016.69 1016.43 1016.01 1015.76 1015.54 1015.26 1015.10 1014.95 1014.88 1014.64 1014.69 1014.23 1013.91 1013.77 1013.74 1012.87 1012.13 1012.38 1012.10 1012.84 1013.52 1013.61 1013.78 1013.77 1013.70 1013.58
1009.13 1009.91 1009.69 1009.97 1010.46 1011.01 1011.46 1011.95 1012.08 1011.62 1011.43 1011.85 1012.60 1014.11 1015.49 1016.29 1016.65 1016.76 1016.72 1016.70 1016.42 1016.26 1015.98 1015.68 1015.46 1015.38 1015.26 1015.01 1014.88 1014.51 1014.02 1013.77 1013.90 1014.18 1013.33 1012.58 1013.10 1012.34 1012.14 1012.90 1013.31 1013.26 1013.21 1012.96
1009.84 1010.06 1010.96 1011.56 1011.81 1012.11 1012.66 1012.99 1012.94 1012.72 1013.06 1013.01 1013.88 1014.67 1015.93 1016.59 1016.87 1016.92 1016.92 1016.81 1016.67 1016.50 1016.34 1016.16 1015.91 1015.80 1015.59 1015.26 1014.91 1014.48 1014.01 1013.48 1013.31 1013.30 1013.31 1013.14 1013.30 1013.34 1012.63 1012.77 1012.67 1012.67 1012.48 1012.22
1010.39 1010.97 1011.58 1012.38 1012.97 1013.17 1013.66 1014.13 1014.07 1013.92 1014.31 1014.50 1014.94 1015.60 1016.65 1016.96 1017.05 1016.98 1016.95 1016.93 1016.88 1016.90 1016.89 1016.69 1016.36 1015.97 1015.60 1015.39 1014.88 1014.43 1013.93 1013.47 1013.12 1013.16 1013.07 1013.02 1013.04 1012.72 1012.85 1012.42 1012.11 1012.12 1011.99 1011.51
1010.97 1011.40 1011.98 1012.83 1013.64 1013.92 1014.28 1014.50 1014.63 1014.97 1015.30 1015.29 1015.44 1016.16 1016.91 1017.01 1017.20 1017.24 1017.18 1017.07 1017.06 1017.13 1017.04 1016.82 1016.72 1016.39 1015.87 1015.43 1015.18 1014.47 1013.91 1013.54 1013.21 1013.04 1012.71 1012.55 1012.43 1012.27 1012.19 1012.03 1011.80 1011.68 1011.19 1010.77
1011.56 1012.02 1012.55 1013.33 1014.09 1014.19 1014.77 1015.18 1015.34 1015.41 1015.75 1016.23 1016.62 1017.04 1017.53 1017.77 1017.70 1017.51 1017.34 1017.12 1017.30 1017.26 1017.07 1016.84 1016.71 1016.48 1016.11 1015.55 1015.04 1014.66 1014.07 1013.41 1013.07 1012.74 1012.41 1012.02 1011.78 1011.65 1011.62 1011.04 1011.22 1010.95 1010.53 1009.65
1011.95 1012.03 1012.71 1013.27 1013.67 1014.60 1015.11 1015.41 1015.54 1015.58 1015.90 1016.63 1017.07 1017.60 1017.88 1018.16 1017.96 1017.13 1017.41 1017.54 1017.55 1017.46 1017.26 1016.93 1016.63 1016.35 1015.97 1015.58 1015.09 1014.57 1014.04 1013.43 1012.84 1012.41 1012.15 1011.74 1011.42 1011.18 1010.73 1010.47 1010.41 1009.63 1009.51 1009.16
1012.32 1012.24 1012.08 1013.36 1013.44 1013.77 1014.43 1015.32 1015.87 1016.18 1016.19 1017.11 1017.62 1017.90 1018.14 1018.43 1017.75 1016.87 1017.44 1017.65 1017.62 1017.44 1017.24 1016.95 1016.60 1016.25 1015.67 1015.30 1014.99 1014.45 1013.85 1013.45 1012.80 1012.29 1011.83 1011.25 1010.82 1010.48 1010.18 1009.75 1009.44 1009.54 1009.12 1008.51
1012.52 1012.70 1012.69 1013.36 1013.66 1014.28 1015.12 1015.81 1016.28 1016.55 1017.11 1017.38 1017.94 1018.16 1018.42 1018.48 1018.29 1017.97 1017.86 1017.75 1017.80 1017.59 1017.14 1016.79 1016.42 1015.97 1015.47 1015.14 1014.78 1014.34 1013.74 1013.10 1012.90 1012.45 1011.79 1011.02 1010.41 1010.01 1009.44 1009.13 1008.94 1008.61 1008.42 1008.17
1012.61 1012.88 1013.42 1014.15 1014.28 1014.71 1015.50 1016.35 1016.45 1016.74 1017.45 1017.90 1018.33 1018.53 1018.64 1018.57 1018.26 1018.12 1017.93 1017.73 1017.69 1017.47 1016.90 1016.50 1016.24 1015.67 1015.20 1014.96 1014.61 1014.10 1013.59 1013.06 1012.67 1012.18 1011.51 1010.83 1010.24 1009.62 1008.89 1008.30 1008.10 1007.80 1007.74 1007.48
1013.41 1013.53 1013.53 1014.24 1014.48 1015.29 1015.74 1016.03 1016.78 1017.16 1017.60 1018.29 1018.64 1018.77 1018.80 1018.50 1018.26 1018.19 1017.77 1017.56 1017.44 1017.19 1016.89 1016.45 1015.93 1015.34 1014.97 1014.68 1014.43 1013.83 1013.18 1012.90 1012.38 1011.89 1011.15 1010.39 1009.81 1008.98 1008.33 1007.68 1007.37 1007.24 1006.92 1006.78
1013.77 1014.15 1013.99 1014.80 1015.34 1015.67 1016.18 1016.75 1017.15 1017.68 1018.06 1018.59 1018.87 1018.96 1018.90 1018.73 1018.51 1018.09 1017.67 1017.60 1017.54 1017.21 1016.90 1016.51 1016.03 1015.44 1014.89 1014.50 1014.08 1013.60 1012.94 1012.45 1011.92 1011.35 1010.69 1009.96 1009.19 1008.48 1007.94 1007.48 1007.36 1007.06 1006.90 1006.58
1013.84 1014.27 1014.39 1014.88 1015.56 1016.09 1016.36 1016.72 1017.27 1017.97 1018.45 1018.80 1019.05 1019.12 1019.10 1018.91 1018.54 1018.28 1017.96 1017.85 1017.62 1017.20 1016.86 1016.49 1016.07 1015.56 1015.02 1014.53 1013.82 1013.06 1012.32 1011.92 1011.40 1010.70 1010.12 1009.39 1008.57 1008.09 1007.55 1007.24 1007.05 1006.91 1006.55 1006.53
1013.59 1013.58 1013.67 1013.55 1014.16 1014.85 1015.53 1016.40 1017.33 1017.89 1018.48 1019.00 1019.14 1019.05 1019.07 1018.93 1018.60 1018.45 1018.05 1017.91 1017.55 1017.23 1016.88 1016.52 1016.17 1015.71 1015.13 1014.43 1013.64 1012.75 1012.02 1011.49 1011.11 1010.31 1009.41 1008.78 1008.34 1007.60 1007.04 1006.77 1006.38 1006.50 1006.71 1006.41
Thickness
5802 5796 5787 5793 5792 5791 5787 5783 5781 5803 5811 5806 5796 5790 5795 5812 5811 5805 5803 5800 5807 5815 5818 5810 5804 5801 5795 5792 5788 5785 5781 5781 5776 5772 5769 5769 5768 5770 5771 5770 5770 5770 5769 5769
5794 5786 5800 5795 5791 5788 5786 5782 5789 5804 5809 5808 5794 5787 5795 5798 5800 5806 5806 5807 5807 5809 5810 5809 5809 5807 5803 5798 5795 5790 5786 5783 5779 5776 5773 5772 5772 5772 5772 5772 5771 5769 5768 5768
5788 5794 5795 5791 5789 5782 5787 5785 5790 5789 5805 5803 5803 5786 5790 5799 5801 5802 5805 5808 5811 5817 5816 5813 5810 5809 5806 5802 5798 5795 5791 5787 5781 5778 5775 5771 5771 5768 5769 5770 5772 5771 5769 5768
5791 5801 5793 5791 5786 5793 5789 5797 5792 5789 5789 5777 5789 5775 5783 5786 5796 5797 5799 5805 5811 5823 5826 5822 5816 5813 5810 5808 5802 5797 5793 5787 5783 5779 5775 5772 5770 5769 5771 5772 5773 5771 5769 5769
5789 5792 5790 5787 5796 5798 5795 5801 5792 5789 5783 5780 5781 5777 5769 5781 5782 5785 5791 5801 5809 5817 5828 5829 5826 5825 5820 5811 5805 5800 5793 5788 5784 5780 5778 5772 5768 5770 5770 5768 5767 5767 5767 5767
5792 5804 5801 5802 5805 5803 5802 5794 5785 5778 5778 5760 5761 5772 5761 5761 5763 5775 5785 5794 5802 5812 5821 5830 5834 5830 5820 5815 5808 5803 5795 5790 5785 5780 5776 5771 5768 5765 5764 5764 5764 5767 5770 5770
5788 5793 5804 5807 5795 5798 5796 5790 5766 5763 5763 5753 5762 5765 5744 5763 5769 5772 5777 5788 5798 5810 5820 5828 5828 5824 5823 5817 5812 5808 5800 5795 5790 5783 5778 5774 5770 5766 5763 5763 5763 5765 5767 5769
5770 5774 5796 5808 5803 5800 5793 5797 5771 5739 5748 5754 5758 5746 5748 5768 5775 5778 5782 5786 5794 5803 5813 5821 5826 5824 5821 5819 5814 5810 5805 5799 5794 5788 5784 5780 5774 5769 5766 5766 5768 5767 5769 5770
5768 5775 5804 5805 5808 5802 5786 5785 5788 5765 5748 5758 5749 5757 5763 5769 5769 5771 5777 5787 5793 5796 5801 5806 5815 5820 5818 5816 5811 5803 5795 5792 5790 5786 5781 5778 5776 5773 5769 5766 5768 5768 5768 5767
5784 5770 5792 5800 5805 5803 5796 5790 5778 5775 5747 5740 5744 5740 5749 5746 5750 5760 5765 5770 5776 5783 5788 5793 5797 5802 5811 5811 5806 5800 5795 5791 5786 5782 5777 5773 5770 5769 5768 5768 5765 5764 5765 5764
5791 5782 5781 5794 5778 5773 5785 5782 5770 5772 5762 5754 5747 5744 5747 5740 5743 5745 5752 5757 5763 5768 5773 5777 5782 5787 5791 5798 5797 5795 5788 5784 5784 5783 5780 5778 5774 5770 5763 5764 5767 5769 5766 5763
5788 5781 5762 5766 5777 5779 5777 5768 5770 5768 5748 5743 5749 5735 5743 5739 5740 5742 5745 5749 5752 5756 5760 5764 5768 5771 5773 5775 5778 5778 5781 5779 5780 5782 5779 5779 5775 5772 5769 5762 5761 5766 5771 5770
5786 5767 5750 5757 5770 5773 5766 5759 5757 5761 5757 5742 5741 5735 5739 5734 5732 5734 5735 5739 5744 5747 5749 5751 5752 5753 5751 5755 5756 5760 5764 5765 5765 5770 5780 5776 5780 5774 5766 5765 5763 5763 5765 5768
5784 5761 5764 5761 5757 5761 5750 5747 5747 5755 5750 5744 5741 5722 5724 5722 5721 5726 5728 5729 5732 5733 5734 5736 5737 5738 5739 5742 5742 5745 5750 5758 5754 5751 5759 5766 5763 5767 5770 5764 5761 5761 5763 5766
5775 5752 5747 5742 5746 5746 5737 5734 5737 5739 5730 5730 5723 5719 5713 5713 5713 5715 5717 5718 5718 5719 5720 5720 5720 5720 5722 5725 5729 5733 5737 5746 5749 5750 5750 5753 5752 5750 5757 5755 5756 5757 5762 5765
5764 5741 5743 5729 5732 5734 5722 5723 5726 5726 5719 5716 5715 5709 5709 5711 5712 5711 5711 5710 5708 5705 5705 5706 5708 5710 5711 5711 5715 5720 5723 5729 5734 5734 5737 5740 5739 5745 5744 5750 5754 5753 5755 5763
5749 5741 5735 5721 5720 5719 5714 5717 5716 5712 5710 5714 5705 5709 5705 5704 5702 5700 5701 5702 5699 5695 5695 5696 5695 5697 5700 5700 5700 5705 5709 5713 5718 5721 5726 5728 5731 5734 5737 5742 5744 5748 5751 5760
5735 5728 5723 5708 5707 5695 5708 5714 5713 5708 5705 5703 5698 5697 5694 5692 5694 5692 5694 5694 5689 5688 5687 5686 5686 5685 5686 5690 5691 5690 5695 5701 5704 5708 5713 5717 5722 5725 5727 5736 5736 5742 5748 5757
5735 5729 5708 5704 5704 5696 5697 5700 5701 5699 5699 5698 5693 5689 5687 5684 5684 5686 5684 5681 5678 5677 5676 5674 5675 5675 5675 5674 5677 5679 5678 5684 5691 5696 5699 5704 5709 5713 5720 5724 5730 5742 5744 5750
5724 5724 5727 5699 5699 5693 5703 5702 5703 5700 5690 5690 5686 5682 5678 5672 5671 5680 5677 5672 5669 5668 5666 5663 5662 5661 5663 5662 5661 5666 5669 5668 5672 5680 5687 5694 5698 5702 5708 5714 5720 5725 5733 5743
5711 5708 5708 5698 5699 5698 5698 5696 5696 5677 5685 5685 5680 5677 5671 5664 5667 5668 5667 5665 5661 5659 5657 5657 5656 5652 5652 5651 5651 5652 5657 5661 5661 5663 5668 5677 5686 5690 5696 5701 5708 5717 5725 5732
5709 5705 5698 5686 5687 5686 5695 5686 5681 5684 5678 5675 5671 5668 5663 5662 5663 5661 5659 5656 5652 5650 5650 5648 5643 5643 5644 5643 5642 5643 5644 5648 5650 5653 5656 5660 5666 5673 5683 5690 5697 5707 5716 5723
5698 5704 5705 5701 5698 5688 5691 5687 5681 5679 5673 5666 5662 5660 5657 5657 5657 5655 5655 5652 5648 5645 5641 5640 5639 5638 5637 5636 5633 5633 5635 5635 5638 5641 5647 5651 5654 5661 5672 5681 5687 5693 5705 5714
5693 5690 5696 5688 5683 5682 5680 5677 5675 5670 5665 5660 5657 5653 5651 5649 5650 5651 5650 5645 5640 5637 5633 5631 5630 5630 5629 5627 5624 5623 5625 5628 5631 5633 5638 5642 5648 5654 5663 5672 5676 5681 5687 5699
5693 5687 5684 5680 5675 5674 5674 5673 5669 5661 5657 5652 5649 5646 5643 5642 5644 5642 5640 5637 5634 5632 5629 5626 5624 5623 5620 5617 5616 5617 5620 5621 5623 5628 5632 5637 5644 5650 5657 5663 5667 5671 5681 5689
5691 5691 5691 5693 5691 5684 5677 5671 5662 5656 5650 5644 5640 5639 5638 5637 5636 5635 5635 5632 5630 5627 5624 5620 5617 5615 5613 5610 5608 5610 5612 5613 5616 5621 5629 5633 5636 5644 5654 5657 5660 5663 5669 5677